SCP
1 3 5 6 6 4 5 4 5 5 5 3 4 4 4 3 3 3 2 2 2 1
2 2 4 5 5 5 6 4 3 3 3 3 3 3 3 3 3 3 3 3 2 2
1 2 4 3 3 3 3 2 1 2 2 2 2 3 4 3 3 3 3 2 2 2
1 1 1 2 1 2 3 2 1 1 1 1 2 2 3 3 2 2 2 2 1 1
1 1 1 1 2 3 3 2 2 0 0 1 1 1 1 1 0 0 0 0 0 0
0 1 1 1 1 1 3 2 1 1 0 0 0 0 0 0 0 0 0 0 0 0
0 0 0 1 1 1 1 1 1 1 0 0 0 0 0 0 0 0 0 0 0 0
0 0 0 0 0 1 1 1 1 1 1 0 0 0 0 0 0 0 0 0 0 0
0 -0 0 0 0 0 0 0 1 1 1 1 0 0 0 0 0 0 0 0 0 0
0 0 0 0 0 0 0 0 0 0 1 1 1 0 0 0 1 1 0 0 0 0
0 0 0 0 0 0 0 0 0 0 1 1 2 1 0 0 1 2 1 1 0 0
0 0 0 0 0 0 0 0 0 0 0 1 1 1 0 0 1 1 1 1 0 0
0 0 0 0 0 0 0 0 0 0 0 0 1 0 0 0 1 1 1 1 1 0
0 0 0 0 0 0 0 0 0 0 0 0 1 1 0 0 1 1 1 1 1 0
Wind_Speed_500mb
63 62 69 71 65 58 54 51 50 63 60 58 48 55 56 55 54 55 59 56 55 54
51 56 62 64 56 56 48 45 45 54 54 58 57 57 49 46 43 42 46 45 52 54
42 45 52 50 54 50 51 50 43 48 49 50 47 41 45 43 41 39 40 38 38 36
29 34 36 38 46 47 44 44 40 38 39 37 37 38 39 39 40 40 37 37 36 36
19 21 25 32 43 47 42 33 35 34 33 34 34 39 39 39 39 36 34 31 29 27
12 12 18 23 28 34 38 27 33 31 36 34 40 40 36 37 35 32 28 25 22 19
24 25 22 17 32 33 39 41 41 41 44 42 42 40 39 37 36 32 28 24 19 16
66 54 36 24 21 28 52 54 62 57 58 51 49 48 48 45 41 38 33 30 25 23
27 49 67 54 46 30 37 44 54 72 65 59 61 59 64 59 49 45 41 38 36 31
32 32 43 58 59 59 58 45 46 55 60 68 69 72 73 72 64 56 52 49 44 40
43 43 39 39 49 48 59 77 69 51 54 59 67 76 78 81 77 74 64 56 54 50
50 51 50 51 49 52 50 52 50 54 61 62 59 68 77 79 81 70 71 64 60 57
60 60 59 57 56 56 55 59 57 59 59 60 59 59 70 72 69 65 66 67 62 68
65 66 65 64 63 61 62 63 66 69 70 68 66 65 73 74 70 63 63 64 61 59
Wind_Direction_500mb
249 242 239 232 226 227 222 225 221 232 231 236 231 242 243 245 249 247 252 250 251 253
245 237 233 226 221 218 217 216 214 232 233 235 239 241 239 236 235 232 240 244 248 248
241 234 222 220 222 208 213 210 218 225 228 230 231 230 232 235 233 232 234 237 239 233
234 223 214 211 209 212 212 212 216 213 213 217 218 220 222 221 225 227 228 225 227 234
247 240 225 212 201 200 199 206 208 200 209 212 219 221 219 222 224 223 221 222 218 226
359 305 265 249 228 216 203 213 219 202 209 211 216 217 216 213 205 204 203 207 211 212
316 334 326 299 249 236 229 219 224 217 213 214 217 211 210 206 204 205 210 213 217 226
256 288 297 294 302 264 238 241 235 236 229 219 218 216 215 214 215 216 218 225 230 242
283 259 269 285 282 280 266 249 239 232 230 229 226 223 218 216 218 222 225 229 236 240
278 270 251 255 261 262 269 271 249 243 237 232 231 230 232 232 225 225 229 231 235 241
272 267 262 247 241 246 250 250 257 251 243 236 233 233 232 236 238 237 232 231 234 236
266 263 259 254 250 245 244 247 246 250 249 247 240 233 234 236 239 236 232 232 232 232
264 260 257 255 254 253 251 250 248 247 242 241 238 240 239 236 234 231 231 231 229 233
260 258 258 257 256 254 251 249 245 244 242 240 238 237 239 237 234 226 227 225 229 234
Wind_Speed_850mb
63 62 69 71 65 58 54 51 50 63 60 58 48 55 56 55 54 55 59 56 55 54
51 56 62 64 56 56 48 45 45 54 54 58 57 57 49 46 43 42 46 45 52 54
42 45 52 50 54 50 51 50 43 48 49 50 47 41 45 43 41 39 40 38 38 36
29 34 36 38 46 47 44 44 40 38 39 37 37 38 39 39 40 40 37 37 36 36
19 21 25 32 43 47 42 33 35 34 33 34 34 39 39 39 39 36 34 31 29 27
12 12 18 23 28 34 38 27 33 31 36 34 40 40 36 37 35 32 28 25 22 19
24 25 22 17 32 33 39 41 41 41 44 42 42 40 39 37 36 32 28 24 19 16
66 54 36 24 21 28 52 54 62 57 58 51 49 48 48 45 41 38 33 30 25 23
27 49 67 54 46 30 37 44 54 72 65 59 61 59 64 59 49 45 41 38 36 31
32 32 43 58 59 59 58 45 46 55 60 68 69 72 73 72 64 56 52 49 44 40
43 43 39 39 49 48 59 77 69 51 54 59 67 76 78 81 77 74 64 56 54 50
50 51 50 51 49 52 50 52 50 54 61 62 59 68 77 79 81 70 71 64 60 57
60 60 59 57 56 56 55 59 57 59 59 60 59 59 70 72 69 65 66 67 62 68
65 66 65 64 63 61 62 63 66 69 70 68 66 65 73 74 70 63 63 64 61 59
Wind_Direction_850mb
249 242 239 232 226 227 222 225 221 232 231 236 231 242 243 245 249 247 252 250 251 253
245 237 233 226 221 218 217 216 214 232 233 235 239 241 239 236 235 232 240 244 248 248
241 234 222 220 222 208 213 210 218 225 228 230 231 230 232 235 233 232 234 237 239 233
234 223 214 211 209 212 212 212 216 213 213 217 218 220 222 221 225 227 228 225 227 234
247 240 225 212 201 200 199 206 208 200 209 212 219 221 219 222 224 223 221 222 218 226
359 305 265 249 228 216 203 213 219 202 209 211 216 217 216 213 205 204 203 207 211 212
316 334 326 299 249 236 229 219 224 217 213 214 217 211 210 206 204 205 210 213 217 226
256 288 297 294 302 264 238 241 235 236 229 219 218 216 215 214 215 216 218 225 230 242
283 259 269 285 282 280 266 249 239 232 230 229 226 223 218 216 218 222 225 229 236 240
278 270 251 255 261 262 269 271 249 243 237 232 231 230 232 232 225 225 229 231 235 241
272 267 262 247 241 246 250 250 257 251 243 236 233 233 232 236 238 237 232 231 234 236
266 263 259 254 250 245 244 247 246 250 249 247 240 233 234 236 239 236 232 232 232 232
264 260 257 255 254 253 251 250 248 247 242 241 238 240 239 236 234 231 231 231 229 233
260 258 258 257 256 254 251 249 245 244 242 240 238 237 239 237 234 226 227 225 229 234